Time,TemperatureF,DewpointF,PressureIn,WindDirection,WindDirectionDegrees,WindSpeedMPH,WindSpeedGustMPH,Humidity,HourlyPrecipIn,Conditions,Clouds,dailyrainin,SoftwareType,DateUTC
2013-02-12 00:05:00,14.0,10.6,30.03,West,270,3.0,3.0,86,0.00,,CLR,0.00,VWS V14.01,2013-02-12 06:05:00,
2013-02-12 00:10:00,13.8,10.6,30.03,West,264,2.0,3.0,87,0.00,,CLR,0.00,VWS V14.01,2013-02-12 06:10:00,
2013-02-12 00:15:00,13.5,10.4,30.03,West,278,2.0,2.0,87,0.00,,CLR,0.00,VWS V14.01,2013-02-12 06:15:00,
2013-02-12 00:20:00,13.3,10.2,30.03,West,274,1.0,2.0,87,0.00,,CLR,0.00,VWS V14.01,2013-02-12 06:20:00,
2013-02-12 00:25:00,13.1,10.0,30.03,West,273,2.0,2.0,87,0.00,,CLR,0.00,VWS V14.01,2013-02-12 06:25:00,
2013-02-12 00:30:00,12.8,9.7,30.03,West,267,1.0,2.0,87,0.00,,CLR,0.00,VWS V14.01,2013-02-12 06:30:00,
2013-02-12 00:36:00,12.5,9.4,30.03,West,267,0.0,2.0,87,0.00,,CLR,0.00,VWS V14.01,2013-02-12 06:36:00,
2013-02-12 00:42:00,12.3,9.4,30.03,West,276,1.0,2.0,88,0.00,,CLR,0.00,VWS V14.01,2013-02-12 06:42:00,
2013-02-12 00:48:00,12.2,9.3,30.03,West,277,0.0,1.0,88,0.00,,CLR,0.00,VWS V14.01,2013-02-12 06:48:00,
2013-02-12 00:54:00,11.9,9.0,30.03,West,273,2.0,2.0,88,0.00,,CLR,0.00,VWS V14.01,2013-02-12 06:54:00,
2013-02-12 01:00:00,12.2,9.6,30.03,WNW,287,2.0,2.0,89,0.00,,CLR,0.00,VWS V14.01,2013-02-12 07:00:00,
2013-02-12 01:05:00,12.4,9.8,30.03,West,281,1.0,3.0,89,0.00,,CLR,0.00,VWS V14.01,2013-02-12 07:05:00,
2013-02-12 01:10:00,12.7,10.3,30.03,West,273,2.0,3.0,90,0.00,,CLR,0.00,VWS V14.01,2013-02-12 07:10:00,
2013-02-12 01:15:00,13.2,10.8,30.03,WSW,253,3.0,4.0,90,0.00,,CLR,0.00,VWS V14.01,2013-02-12 07:15:00,
2013-02-12 01:20:00,13.5,11.1,30.03,West,277,3.0,3.0,90,0.00,,CLR,0.00,VWS V14.01,2013-02-12 07:20:00,
2013-02-12 01:25:00,13.9,11.5,30.03,WSW,256,4.0,5.0,90,0.00,,CLR,0.00,VWS V14.01,2013-02-12 07:25:00,
2013-02-12 01:31:00,14.1,11.7,30.03,West,270,4.0,4.0,90,0.00,,CLR,0.00,VWS V14.01,2013-02-12 07:31:00,
2013-02-12 01:37:00,14.4,11.8,30.02,WNW,293,1.0,4.0,89,0.00,,CLR,0.00,VWS V14.01,2013-02-12 07:37:00,
2013-02-12 01:43:00,14.5,11.9,30.03,West,276,4.0,4.0,89,0.00,,CLR,0.00,VWS V14.01,2013-02-12 07:43:00,
2013-02-12 01:49:00,14.7,12.3,30.03,West,267,5.0,5.0,90,0.00,,CLR,0.00,VWS V14.01,2013-02-12 07:49:00,
2013-02-12 01:55:00,15.0,12.6,30.03,West,268,4.0,5.0,90,0.00,,CLR,0.00,VWS V14.01,2013-02-12 07:55:00,
2013-02-12 02:00:00,15.1,12.4,30.03,West,280,3.0,4.0,89,0.00,,CLR,0.00,VWS V14.01,2013-02-12 08:00:00,
2013-02-12 02:05:00,15.1,12.4,30.03,WNW,283,2.0,5.0,89,0.00,,CLR,0.00,VWS V14.01,2013-02-12 08:05:00,
2013-02-12 02:10:00,15.2,12.8,30.03,West,278,4.0,5.0,90,0.00,,CLR,0.00,VWS V14.01,2013-02-12 08:10:00,
2013-02-12 02:15:00,15.7,13.3,30.03,West,281,1.0,5.0,90,0.00,,CLR,0.00,VWS V14.01,2013-02-12 08:15:00,
2013-02-12 02:20:00,15.9,13.5,30.03,West,271,4.0,5.0,90,0.00,,CLR,0.00,VWS V14.01,2013-02-12 08:20:00,
2013-02-12 02:25:00,16.2,14.0,30.04,West,267,5.0,5.0,91,0.00,,CLR,0.00,VWS V14.01,2013-02-12 08:25:00,
2013-02-12 02:30:00,16.7,14.5,30.04,West,267,4.0,6.0,91,0.00,,CLR,0.00,VWS V14.01,2013-02-12 08:30:00,
2013-02-12 02:35:00,17.1,14.7,30.03,West,262,5.0,6.0,90,0.00,,CLR,0.00,VWS V14.01,2013-02-12 08:35:00,
2013-02-12 02:40:00,17.3,14.9,30.03,West,276,5.0,6.0,90,0.00,,CLR,0.00,VWS V14.01,2013-02-12 08:40:00,
2013-02-12 02:47:00,17.4,15.0,30.03,West,276,6.0,6.0,90,0.00,,CLR,0.00,VWS V14.01,2013-02-12 08:47:00,
2013-02-12 02:53:00,17.6,14.9,30.03,WSW,248,6.0,6.0,89,0.00,,CLR,0.00,VWS V14.01,2013-02-12 08:53:00,
2013-02-12 02:59:00,17.7,15.0,30.03,West,265,4.0,7.0,89,0.00,,CLR,0.00,VWS V14.01,2013-02-12 08:59:00,
2013-02-12 03:05:00,17.7,15.0,30.03,WSW,257,7.0,7.0,89,0.00,,BKN026,0.00,VWS V14.01,2013-02-12 09:05:00,
2013-02-12 03:10:00,17.8,15.1,30.03,West,266,3.0,5.0,89,0.00,,BKN026,0.00,VWS V14.01,2013-02-12 09:10:00,
2013-02-12 03:15:00,17.7,15.0,30.03,West,262,4.0,7.0,89,0.00,,BKN026,0.00,VWS V14.01,2013-02-12 09:15:00,
2013-02-12 03:20:00,17.7,14.8,30.03,West,260,3.0,5.0,88,0.00,,BKN026,0.00,VWS V14.01,2013-02-12 09:20:00,
2013-02-12 03:26:00,17.7,15.0,30.03,West,262,5.0,5.0,89,0.00,,BKN026,0.00,VWS V14.01,2013-02-12 09:26:00,
2013-02-12 03:31:00,17.8,14.9,30.02,West,274,3.0,5.0,88,0.00,,BKN026,0.00,VWS V14.01,2013-02-12 09:31:00,
2013-02-12 03:37:00,17.7,14.8,30.02,West,264,1.0,2.0,88,0.00,,,0.00,VWS V14.01,2013-02-12 09:37:00,
2013-02-12 03:43:00,17.7,14.8,30.02,West,260,3.0,3.0,88,0.00,,,0.00,VWS V14.01,2013-02-12 09:43:00,
2013-02-12 03:49:00,17.8,14.9,30.02,WSW,258,3.0,4.0,88,0.00,,,0.00,VWS V14.01,2013-02-12 09:49:00,
2013-02-12 03:55:00,17.7,14.8,30.02,WSW,253,3.0,3.0,88,0.00,,,0.00,VWS V14.01,2013-02-12 09:55:00,
2013-02-12 04:00:00,17.7,14.8,30.01,WSW,256,1.0,3.0,88,0.00,,,0.00,VWS V14.01,2013-02-12 10:00:00,
2013-02-12 04:05:00,17.7,14.8,30.01,WSW,240,1.0,2.0,88,0.00,,,0.00,VWS V14.01,2013-02-12 10:05:00,
2013-02-12 04:10:00,17.7,14.8,30.01,SW,218,0.0,2.0,88,0.00,,,0.00,VWS V14.01,2013-02-12 10:10:00,
2013-02-12 04:15:00,17.6,14.7,30.01,West,263,1.0,2.0,88,0.00,,,0.00,VWS V14.01,2013-02-12 10:15:00,
2013-02-12 04:20:00,17.6,14.7,30.01,WSW,257,1.0,2.0,88,0.00,,,0.00,VWS V14.01,2013-02-12 10:20:00,
2013-02-12 04:25:00,17.7,15.0,30.02,WSW,240,3.0,3.0,89,0.00,,,0.00,VWS V14.01,2013-02-12 10:25:00,
2013-02-12 04:30:00,17.8,15.1,30.01,WSW,253,3.0,3.0,89,0.00,,,0.00,VWS V14.01,2013-02-12 10:30:00,
2013-02-12 04:36:00,17.8,15.1,30.01,SW,229,3.0,5.0,89,0.00,,,0.00,VWS V14.01,2013-02-12 10:36:00,
2013-02-12 04:42:00,17.9,15.2,30.01,SW,221,5.0,5.0,89,0.00,,,0.00,VWS V14.01,2013-02-12 10:42:00,
2013-02-12 04:48:00,18.0,15.3,30.01,SW,235,1.0,4.0,89,0.00,,OVC026,0.00,VWS V14.01,2013-02-12 10:48:00,
2013-02-12 04:54:00,18.1,15.1,30.01,WSW,257,2.0,4.0,88,0.00,,OVC026,0.00,VWS V14.01,2013-02-12 10:54:00,
2013-02-12 05:00:00,18.1,15.1,30.01,SW,236,1.0,2.0,88,0.00,,OVC026,0.00,VWS V14.01,2013-02-12 11:00:00,
2013-02-12 05:05:00,18.2,15.5,30.01,WSW,248,2.0,2.0,89,0.00,,OVC026,0.00,VWS V14.01,2013-02-12 11:05:00,
2013-02-12 05:10:00,18.2,15.5,30.00,WNW,283,3.0,4.0,89,0.00,,OVC026,0.00,VWS V14.01,2013-02-12 11:10:00,
2013-02-12 05:15:00,18.3,15.6,30.00,SSW,208,1.0,3.0,89,0.00,,OVC026,0.00,VWS V14.01,2013-02-12 11:15:00,
2013-02-12 05:20:00,18.4,15.7,30.00,SW,231,2.0,3.0,89,0.00,,OVC026,0.00,VWS V14.01,2013-02-12 11:20:00,
2013-02-12 05:25:00,18.4,15.7,30.00,SW,215,2.0,2.0,89,0.00,,OVC026,0.00,VWS V14.01,2013-02-12 11:25:00,
2013-02-12 05:30:00,18.5,15.8,30.00,SW,228,4.0,4.0,89,0.00,,OVC026,0.00,VWS V14.01,2013-02-12 11:30:00,
2013-02-12 05:35:00,18.5,15.8,30.00,WSW,246,2.0,5.0,89,0.00,,OVC018,0.00,VWS V14.01,2013-02-12 11:35:00,
2013-02-12 05:40:00,18.6,15.9,30.00,SW,220,1.0,4.0,89,0.00,,OVC018,0.00,VWS V14.01,2013-02-12 11:40:00,
2013-02-12 05:45:00,18.6,15.9,29.99,South,184,2.0,6.0,89,0.00,,OVC018,0.00,VWS V14.01,2013-02-12 11:45:00,
2013-02-12 05:50:00,18.7,16.0,29.99,SW,234,2.0,4.0,89,0.00,,OVC024,0.00,VWS V14.01,2013-02-12 11:50:00,
2013-02-12 05:55:00,18.7,16.0,29.99,WSW,238,2.0,2.0,89,0.00,,OVC024,0.00,VWS V14.01,2013-02-12 11:55:00,
2013-02-12 06:00:00,18.7,16.0,29.99,West,263,0.0,2.0,89,0.00,,OVC024,0.00,VWS V14.01,2013-02-12 12:00:00,
2013-02-12 06:05:00,18.8,16.1,29.99,WSW,241,0.0,2.0,89,0.00,,OVC018,0.00,VWS V14.01,2013-02-12 12:05:00,
2013-02-12 06:10:00,18.8,16.1,29.99,West,260,0.0,2.0,89,0.00,,OVC018,0.00,VWS V14.01,2013-02-12 12:10:00,
2013-02-12 06:15:00,18.8,16.1,29.99,WSW,249,0.0,1.0,89,0.00,,OVC018,0.00,VWS V14.01,2013-02-12 12:15:00,
2013-02-12 06:20:00,18.7,15.7,29.99,SW,215,3.0,3.0,88,0.00,,OVC018,0.00,VWS V14.01,2013-02-12 12:20:00,
2013-02-12 06:25:00,18.5,15.8,29.99,SW,218,0.0,3.0,89,0.00,,OVC018,0.00,VWS V14.01,2013-02-12 12:25:00,
2013-02-12 06:30:00,18.2,15.2,29.99,SSW,208,1.0,1.0,88,0.00,,OVC018,0.00,VWS V14.01,2013-02-12 12:30:00,
2013-02-12 06:35:00,17.8,14.9,29.98,SW,219,0.0,1.0,88,0.00,,OVC022,0.00,VWS V14.01,2013-02-12 12:35:00,
2013-02-12 06:40:00,17.4,14.5,29.98,SSW,195,0.0,1.0,88,0.00,,OVC022,0.00,VWS V14.01,2013-02-12 12:40:00,
2013-02-12 06:45:00,17.1,14.4,29.98,SW,224,0.0,0.0,89,0.00,,OVC022,0.00,VWS V14.01,2013-02-12 12:45:00,
2013-02-12 06:50:00,16.7,14.0,29.98,South,189,0.0,2.0,89,0.00,,OVC022,0.00,VWS V14.01,2013-02-12 12:50:00,
2013-02-12 06:55:00,16.3,13.6,29.98,SSE,162,0.0,0.0,89,0.00,,OVC022,0.00,VWS V14.01,2013-02-12 12:55:00,
2013-02-12 07:00:00,15.8,12.9,29.98,SSE,163,0.0,0.0,88,0.00,,OVC022,0.00,VWS V14.01,2013-02-12 13:00:00,
2013-02-12 07:05:00,15.3,12.6,29.98,SSE,164,0.0,0.0,89,0.00,,OVC022,0.00,VWS V14.01,2013-02-12 13:05:00,
2013-02-12 07:10:00,15.1,12.4,29.98,SSE,162,0.0,0.0,89,0.00,,OVC022,0.00,VWS V14.01,2013-02-12 13:10:00,
2013-02-12 07:15:00,15.3,12.9,29.98,East,97,0.0,1.0,90,0.00,,OVC022,0.00,VWS V14.01,2013-02-12 13:15:00,
2013-02-12 07:20:00,15.4,13.0,29.98,East,98,0.0,0.0,90,0.00,,OVC022,0.00,VWS V14.01,2013-02-12 13:20:00,
2013-02-12 07:25:00,15.0,12.6,29.98,East,97,0.0,0.0,90,0.00,,OVC022,0.00,VWS V14.01,2013-02-12 13:25:00,
2013-02-12 07:30:00,14.7,12.3,29.98,East,97,0.0,1.0,90,0.00,,OVC022,0.00,VWS V14.01,2013-02-12 13:30:00,
2013-02-12 07:35:00,14.6,12.2,29.98,NE,48,0.0,0.0,90,0.00,,CLR,0.00,VWS V14.01,2013-02-12 13:35:00,
2013-02-12 07:40:00,14.5,12.1,29.98,NE,47,0.0,0.0,90,0.00,,CLR,0.00,VWS V14.01,2013-02-12 13:40:00,
2013-02-12 07:45:00,14.4,12.0,29.97,South,181,0.0,0.0,90,0.00,,CLR,0.00,VWS V14.01,2013-02-12 13:45:00,
2013-02-12 07:50:00,14.7,12.8,29.97,SW,221,1.0,1.0,92,0.00,,CLR,0.00,VWS V14.01,2013-02-12 13:50:00,
2013-02-12 07:55:00,15.3,13.6,29.97,SSW,211,1.0,3.0,93,0.00,,CLR,0.00,VWS V14.01,2013-02-12 13:55:00,
2013-02-12 08:00:00,15.9,14.2,29.97,SSW,197,3.0,3.0,93,0.00,,CLR,0.00,VWS V14.01,2013-02-12 14:00:00,
2013-02-12 08:05:00,16.5,14.8,29.97,SSW,212,4.0,4.0,93,0.00,,CLR,0.00,VWS V14.01,2013-02-12 14:05:00,
2013-02-12 08:10:00,17.3,15.6,29.97,SSE,162,5.0,6.0,93,0.00,,CLR,0.00,VWS V14.01,2013-02-12 14:10:00,
2013-02-12 08:15:00,18.2,16.5,29.97,SW,215,5.0,5.0,93,0.00,,CLR,0.00,VWS V14.01,2013-02-12 14:15:00,
2013-02-12 08:20:00,18.9,16.7,29.96,SW,225,7.0,7.0,91,0.00,,CLR,0.00,VWS V14.01,2013-02-12 14:20:00,
2013-02-12 08:25:00,19.4,17.0,29.97,South,191,5.0,8.0,90,0.00,,CLR,0.00,VWS V14.01,2013-02-12 14:25:00,
2013-02-12 08:30:00,19.9,17.5,29.96,South,188,7.0,8.0,90,0.00,,CLR,0.00,VWS V14.01,2013-02-12 14:30:00,
2013-02-12 08:35:00,20.4,17.7,29.96,SW,221,5.0,8.0,89,0.00,,CLR,0.00,VWS V14.01,2013-02-12 14:35:00,
2013-02-12 08:40:00,20.7,17.7,29.95,SSW,211,10.0,14.0,88,0.00,,CLR,0.00,VWS V14.01,2013-02-12 14:40:00,
2013-02-12 08:45:00,21.0,18.0,29.95,SSW,212,11.0,11.0,88,0.00,,CLR,0.00,VWS V14.01,2013-02-12 14:45:00,
2013-02-12 08:50:00,21.4,18.1,29.96,South,177,4.0,11.0,87,0.00,,CLR,0.00,VWS V14.01,2013-02-12 14:50:00,
2013-02-12 08:55:00,21.6,18.1,29.96,WSW,238,7.0,8.0,86,0.00,,CLR,0.00,VWS V14.01,2013-02-12 14:55:00,
2013-02-12 09:00:00,21.9,18.4,29.96,WSW,240,8.0,11.0,86,0.00,,CLR,0.00,VWS V14.01,2013-02-12 15:00:00,
2013-02-12 09:05:00,22.1,18.6,29.95,SW,219,9.0,11.0,86,0.00,,CLR,0.00,VWS V14.01,2013-02-12 15:05:00,
2013-02-12 09:10:00,22.3,18.5,29.95,SW,215,4.0,15.0,85,0.00,,CLR,0.00,VWS V14.01,2013-02-12 15:10:00,
2013-02-12 09:15:00,22.6,18.8,29.95,SSW,197,11.0,11.0,85,0.00,,CLR,0.00,VWS V14.01,2013-02-12 15:15:00,
2013-02-12 09:20:00,22.9,19.1,29.95,WSW,253,9.0,11.0,85,0.00,,CLR,0.00,VWS V14.01,2013-02-12 15:20:00,
2013-02-12 09:25:00,23.2,19.4,29.95,South,183,7.0,9.0,85,0.00,,CLR,0.00,VWS V14.01,2013-02-12 15:25:00,
2013-02-12 09:30:00,23.6,19.5,29.95,SSW,212,4.0,11.0,84,0.00,,CLR,0.00,VWS V14.01,2013-02-12 15:30:00,
2013-02-12 09:35:00,24.0,19.9,29.94,SSE,165,8.0,8.0,84,0.00,,CLR,0.00,VWS V14.01,2013-02-12 15:35:00,
2013-02-12 09:40:00,24.3,19.9,29.94,SW,221,7.0,9.0,83,0.00,,CLR,0.00,VWS V14.01,2013-02-12 15:40:00,
2013-02-12 09:45:00,24.7,20.3,29.94,SW,233,3.0,9.0,83,0.00,,CLR,0.00,VWS V14.01,2013-02-12 15:45:00,
2013-02-12 09:50:00,25.1,20.7,29.94,SW,236,6.0,10.0,83,0.00,,SCT110,0.00,VWS V14.01,2013-02-12 15:50:00,
2013-02-12 09:55:00,25.6,20.9,29.94,SSW,212,4.0,7.0,82,0.00,,SCT110,0.00,VWS V14.01,2013-02-12 15:55:00,
2013-02-12 10:00:00,26.1,21.1,29.94,SSW,212,4.0,11.0,81,0.00,,SCT110,0.00,VWS V14.01,2013-02-12 16:00:00,
2013-02-12 10:07:00,26.7,21.7,29.94,SW,231,3.0,6.0,81,0.00,,SCT110,0.00,VWS V14.01,2013-02-12 16:07:00,
2013-02-12 10:13:00,27.3,22.0,29.93,SSW,212,8.0,8.0,80,0.00,,SCT110,0.00,VWS V14.01,2013-02-12 16:13:00,
2013-02-12 10:19:00,27.4,22.0,29.93,WSW,243,2.0,4.0,80,0.00,,SCT110,0.00,VWS V14.01,2013-02-12 16:19:00,
2013-02-12 10:25:00,27.6,22.0,29.93,WSW,238,3.0,9.0,79,0.00,,SCT110,0.00,VWS V14.01,2013-02-12 16:25:00,
2013-02-12 10:30:00,27.6,22.0,29.93,WSW,253,7.0,11.0,79,0.00,,SCT110,0.00,VWS V14.01,2013-02-12 16:30:00,
2013-02-12 10:35:00,27.7,22.0,29.92,SW,224,6.0,8.0,79,0.00,,CLR,0.00,VWS V14.01,2013-02-12 16:35:00,
2013-02-12 10:40:00,28.0,22.3,29.92,WSW,246,4.0,8.0,79,0.00,,CLR,0.00,VWS V14.01,2013-02-12 16:40:00,
2013-02-12 10:45:00,28.4,22.4,29.92,WSW,256,5.0,9.0,78,0.00,,CLR,0.00,VWS V14.01,2013-02-12 16:45:00,
2013-02-12 10:50:00,28.6,22.3,29.92,SSE,152,6.0,10.0,77,0.00,,CLR,0.00,VWS V14.01,2013-02-12 16:50:00,
2013-02-12 10:55:00,28.8,22.8,29.91,SW,228,3.0,9.0,78,0.00,,CLR,0.00,VWS V14.01,2013-02-12 16:55:00,
2013-02-12 11:01:00,28.9,22.9,29.91,SW,233,7.0,7.0,78,0.00,,CLR,0.00,VWS V14.01,2013-02-12 17:01:00,
2013-02-12 11:07:00,29.1,23.1,29.91,West,260,5.0,5.0,78,0.00,,CLR,0.00,VWS V14.01,2013-02-12 17:07:00,
2013-02-12 11:13:00,29.6,23.3,29.91,WSW,240,4.0,6.0,77,0.00,,CLR,0.00,VWS V14.01,2013-02-12 17:13:00,
2013-02-12 11:19:00,30.1,23.8,29.91,SW,217,9.0,9.0,77,0.00,,CLR,0.00,VWS V14.01,2013-02-12 17:19:00,
2013-02-12 11:25:00,30.3,23.7,29.91,SW,225,4.0,7.0,76,0.00,,CLR,0.00,VWS V14.01,2013-02-12 17:25:00,
2013-02-12 11:30:00,30.4,23.8,29.91,West,264,3.0,10.0,76,0.00,,CLR,0.00,VWS V14.01,2013-02-12 17:30:00,
2013-02-12 11:35:00,30.7,24.0,29.90,SW,220,3.0,6.0,76,0.00,,CLR,0.00,VWS V14.01,2013-02-12 17:35:00,
2013-02-12 11:40:00,30.8,23.8,29.90,WSW,237,7.0,7.0,75,0.00,,CLR,0.00,VWS V14.01,2013-02-12 17:40:00,
2013-02-12 11:47:00,30.9,24.2,29.90,West,266,6.0,6.0,76,0.00,,CLR,0.00,VWS V14.01,2013-02-12 17:47:00,
2013-02-12 11:53:00,31.1,24.1,29.90,SW,222,5.0,6.0,75,0.00,,CLR,0.00,VWS V14.01,2013-02-12 17:53:00,
2013-02-12 11:59:00,31.4,24.4,29.89,SSW,212,3.0,9.0,75,0.00,,CLR,0.00,VWS V14.01,2013-02-12 17:59:00,
2013-02-12 12:05:00,31.6,24.6,29.89,WSW,238,2.0,7.0,75,0.00,,CLR,0.00,VWS V14.01,2013-02-12 18:05:00,
2013-02-12 12:10:00,31.8,24.5,29.89,West,262,6.0,10.0,74,0.00,,CLR,0.00,VWS V14.01,2013-02-12 18:10:00,
2013-02-12 12:15:00,31.9,24.9,29.89,SW,232,3.0,6.0,75,0.00,,CLR,0.00,VWS V14.01,2013-02-12 18:15:00,
2013-02-12 12:20:00,32.3,25.3,29.88,SW,233,5.0,6.0,75,0.00,,CLR,0.00,VWS V14.01,2013-02-12 18:20:00,
2013-02-12 12:25:00,32.5,25.1,29.88,SSW,212,4.0,7.0,74,0.00,,CLR,0.00,VWS V14.01,2013-02-12 18:25:00,
2013-02-12 12:30:00,32.7,25.3,29.88,SW,217,6.0,7.0,74,0.00,,CLR,0.00,VWS V14.01,2013-02-12 18:30:00,
2013-02-12 12:35:00,32.8,25.1,29.88,SW,231,4.0,7.0,73,0.00,,CLR,0.00,VWS V14.01,2013-02-12 18:35:00,
2013-02-12 12:40:00,32.8,25.1,29.88,WSW,256,6.0,7.0,73,0.00,,CLR,0.00,VWS V14.01,2013-02-12 18:40:00,
2013-02-12 12:45:00,33.1,25.4,29.87,WNW,283,5.0,7.0,73,0.00,,CLR,0.00,VWS V14.01,2013-02-12 18:45:00,
2013-02-12 12:50:00,33.2,25.2,29.87,WSW,252,9.0,10.0,72,0.00,,CLR,0.00,VWS V14.01,2013-02-12 18:50:00,
2013-02-12 12:55:00,33.4,25.7,29.87,SSW,201,2.0,9.0,73,0.00,,CLR,0.00,VWS V14.01,2013-02-12 18:55:00,
2013-02-12 13:01:00,33.8,26.4,29.87,SW,224,3.0,6.0,74,0.00,,CLR,0.00,VWS V14.01,2013-02-12 19:01:00,
2013-02-12 13:07:00,33.8,26.7,29.87,West,267,6.0,7.0,75,0.00,,CLR,0.00,VWS V14.01,2013-02-12 19:07:00,
2013-02-12 13:13:00,33.7,26.3,29.87,SW,221,3.0,5.0,74,0.00,,CLR,0.00,VWS V14.01,2013-02-12 19:13:00,
2013-02-12 13:20:00,33.9,26.5,29.87,SSW,205,8.0,8.0,74,0.00,,CLR,0.00,VWS V14.01,2013-02-12 19:20:00,
2013-02-12 13:26:00,34.0,26.9,29.86,SW,226,2.0,7.0,75,0.00,,CLR,0.00,VWS V14.01,2013-02-12 19:26:00,
2013-02-12 13:32:00,34.2,27.8,29.86,West,260,5.0,7.0,77,0.00,,CLR,0.00,VWS V14.01,2013-02-12 19:32:00,
2013-02-12 13:38:00,34.2,28.1,29.86,SW,222,4.0,6.0,78,0.00,,CLR,0.00,VWS V14.01,2013-02-12 19:38:00,
2013-02-12 13:44:00,34.2,28.4,29.85,West,264,3.0,9.0,79,0.00,,CLR,0.00,VWS V14.01,2013-02-12 19:44:00,
2013-02-12 13:50:00,34.6,29.1,29.85,West,269,4.0,4.0,80,0.00,,CLR,0.00,VWS V14.01,2013-02-12 19:50:00,
2013-02-12 13:55:00,34.9,28.1,29.85,SSW,210,4.0,8.0,76,0.00,,CLR,0.00,VWS V14.01,2013-02-12 19:55:00,
2013-02-12 14:01:00,35.0,27.6,29.84,WSW,250,5.0,6.0,74,0.00,,CLR,0.00,VWS V14.01,2013-02-12 20:01:00,
2013-02-12 14:06:00,35.0,26.9,29.84,SW,232,2.0,6.0,72,0.00,,SCT095,0.00,VWS V14.01,2013-02-12 20:06:00,
2013-02-12 14:12:00,35.2,27.4,29.84,West,263,5.0,5.0,73,0.00,,SCT095,0.00,VWS V14.01,2013-02-12 20:12:00,
2013-02-12 14:18:00,35.4,27.0,29.84,SW,226,2.0,10.0,71,0.00,,SCT095,0.00,VWS V14.01,2013-02-12 20:18:00,
2013-02-12 14:24:00,35.9,27.4,29.84,SSW,208,5.0,7.0,71,0.00,,SCT095,0.00,VWS V14.01,2013-02-12 20:24:00,
2013-02-12 14:30:00,36.2,27.4,29.84,SSW,212,10.0,10.0,70,0.00,,SCT095,0.00,VWS V14.01,2013-02-12 20:30:00,
2013-02-12 14:35:00,36.0,27.2,29.84,WSW,239,8.0,9.0,70,0.00,,CLR,0.00,VWS V14.01,2013-02-12 20:35:00,
2013-02-12 14:40:00,35.9,27.4,29.84,SSW,212,7.0,8.0,71,0.00,,CLR,0.00,VWS V14.01,2013-02-12 20:40:00,
2013-02-12 14:46:00,36.1,27.6,29.83,West,260,3.0,3.0,71,0.00,,CLR,0.00,VWS V14.01,2013-02-12 20:46:00,
2013-02-12 14:52:00,36.2,27.4,29.83,SW,233,5.0,7.0,70,0.00,,CLR,0.00,VWS V14.01,2013-02-12 20:52:00,
2013-02-12 14:58:00,36.1,27.3,29.83,SW,224,6.0,11.0,70,0.00,,CLR,0.00,VWS V14.01,2013-02-12 20:58:00,
2013-02-12 15:04:00,36.2,27.7,29.83,SSW,207,7.0,8.0,71,0.00,,CLR,0.00,VWS V14.01,2013-02-12 21:04:00,
2013-02-12 15:10:00,36.1,27.6,29.83,SSE,153,3.0,12.0,71,0.00,,CLR,0.00,VWS V14.01,2013-02-12 21:10:00,
2013-02-12 15:15:00,36.1,27.6,29.83,WSW,243,4.0,7.0,71,0.00,,CLR,0.00,VWS V14.01,2013-02-12 21:15:00,
2013-02-12 15:20:00,36.2,27.7,29.83,West,271,6.0,6.0,71,0.00,,CLR,0.00,VWS V14.01,2013-02-12 21:20:00,
2013-02-12 15:25:00,36.0,27.9,29.83,WNW,284,3.0,8.0,72,0.00,,CLR,0.00,VWS V14.01,2013-02-12 21:25:00,
2013-02-12 15:30:00,36.0,27.9,29.83,SW,233,3.0,8.0,72,0.00,,CLR,0.00,VWS V14.01,2013-02-12 21:30:00,
2013-02-12 15:35:00,36.0,27.9,29.83,West,266,3.0,6.0,72,0.00,,CLR,0.00,VWS V14.01,2013-02-12 21:35:00,
2013-02-12 15:40:00,35.8,28.0,29.83,West,260,6.0,9.0,73,0.00,,CLR,0.00,VWS V14.01,2013-02-12 21:40:00,
2013-02-12 15:45:00,35.6,28.1,29.83,WSW,245,3.0,7.0,74,0.00,,CLR,0.00,VWS V14.01,2013-02-12 21:45:00,
2013-02-12 15:50:00,35.6,28.1,29.83,WSW,257,4.0,6.0,74,0.01,,CLR,0.01,VWS V14.01,2013-02-12 21:50:00,
2013-02-12 15:55:00,35.6,27.8,29.83,WSW,253,4.0,8.0,73,0.01,,CLR,0.01,VWS V14.01,2013-02-12 21:55:00,
2013-02-12 16:00:00,35.5,28.0,29.83,WSW,255,4.0,7.0,74,0.01,,CLR,0.01,VWS V14.01,2013-02-12 22:00:00,
2013-02-12 16:05:00,35.4,28.0,29.83,West,262,2.0,6.0,74,0.01,,CLR,0.01,VWS V14.01,2013-02-12 22:05:00,
2013-02-12 16:10:00,35.0,28.9,29.83,SW,228,4.0,6.0,78,0.01,,CLR,0.01,VWS V14.01,2013-02-12 22:10:00,
2013-02-12 16:15:00,34.3,29.7,29.83,WSW,246,3.0,6.0,83,0.01,,CLR,0.01,VWS V14.01,2013-02-12 22:15:00,
2013-02-12 16:20:00,33.9,30.2,29.83,West,262,3.0,5.0,86,0.01,,CLR,0.01,VWS V14.01,2013-02-12 22:20:00,
2013-02-12 16:25:00,33.4,30.2,29.83,WSW,256,6.0,6.0,88,0.02,,CLR,0.02,VWS V14.01,2013-02-12 22:25:00,
2013-02-12 16:30:00,33.0,30.4,29.83,West,263,5.0,6.0,90,0.02,,CLR,0.02,VWS V14.01,2013-02-12 22:30:00,
2013-02-12 16:36:00,32.9,30.6,29.83,West,264,5.0,6.0,91,0.02,,CLR,0.02,VWS V14.01,2013-02-12 22:36:00,
2013-02-12 16:43:00,32.6,30.3,29.84,West,274,7.0,7.0,91,0.02,,CLR,0.02,VWS V14.01,2013-02-12 22:43:00,
2013-02-12 16:49:00,32.3,30.0,29.84,WSW,257,8.0,12.0,91,0.02,,CLR,0.02,VWS V14.01,2013-02-12 22:49:00,
2013-02-12 16:55:00,32.3,29.1,29.83,West,270,3.0,7.0,88,0.01,,CLR,0.02,VWS V14.01,2013-02-12 22:55:00,
2013-02-12 17:00:00,32.1,28.1,29.83,WNW,291,6.0,9.0,85,0.01,,CLR,0.02,VWS V14.01,2013-02-12 23:00:00,
2013-02-12 17:05:00,32.0,27.4,29.83,WNW,284,6.0,10.0,83,0.01,,CLR,0.02,VWS V14.01,2013-02-12 23:05:00,
2013-02-12 17:10:00,31.9,27.0,29.84,West,269,6.0,10.0,82,0.01,,CLR,0.02,VWS V14.01,2013-02-12 23:10:00,
2013-02-12 17:15:00,31.7,26.5,29.83,WNW,284,5.0,7.0,81,0.01,,CLR,0.02,VWS V14.01,2013-02-12 23:15:00,
2013-02-12 17:20:00,31.5,26.4,29.84,West,274,7.0,7.0,81,0.01,,CLR,0.02,VWS V14.01,2013-02-12 23:20:00,
2013-02-12 17:25:00,31.2,26.1,29.84,West,277,3.0,8.0,81,0.01,,CLR,0.02,VWS V14.01,2013-02-12 23:25:00,
2013-02-12 17:30:00,30.9,25.8,29.84,West,276,4.0,8.0,81,0.00,,CLR,0.02,VWS V14.01,2013-02-12 23:30:00,
2013-02-12 17:35:00,30.5,25.7,29.84,West,270,5.0,6.0,82,0.00,,CLR,0.02,VWS V14.01,2013-02-12 23:35:00,
2013-02-12 17:40:00,30.1,25.3,29.84,WNW,293,3.0,6.0,82,0.00,,CLR,0.02,VWS V14.01,2013-02-12 23:40:00,
2013-02-12 17:45:00,29.7,25.2,29.84,WNW,294,3.0,4.0,83,0.00,,CLR,0.02,VWS V14.01,2013-02-12 23:45:00,
2013-02-12 17:50:00,29.4,24.9,29.84,West,263,4.0,4.0,83,0.00,,CLR,0.02,VWS V14.01,2013-02-12 23:50:00,
2013-02-12 17:55:00,28.9,24.4,29.84,West,277,3.0,4.0,83,0.00,,CLR,0.02,VWS V14.01,2013-02-12 23:55:00,
2013-02-12 18:00:00,28.4,23.9,29.84,West,280,4.0,5.0,83,0.00,,CLR,0.02,VWS V14.01,2013-02-13 00:00:00,
2013-02-12 18:05:00,28.0,23.5,29.84,West,277,4.0,5.0,83,0.00,,CLR,0.02,VWS V14.01,2013-02-13 00:05:00,
2013-02-12 18:10:00,27.5,23.0,29.84,West,269,4.0,4.0,83,0.00,,CLR,0.02,VWS V14.01,2013-02-13 00:10:00,
2013-02-12 18:15:00,27.0,22.8,29.84,West,280,4.0,5.0,84,0.00,,CLR,0.02,VWS V14.01,2013-02-13 00:15:00,
2013-02-12 18:20:00,26.7,22.5,29.84,West,273,3.0,4.0,84,0.00,,CLR,0.02,VWS V14.01,2013-02-13 00:20:00,
2013-02-12 18:25:00,26.2,22.0,29.84,West,259,2.0,3.0,84,0.00,,CLR,0.02,VWS V14.01,2013-02-13 00:25:00,
2013-02-12 18:30:00,25.8,21.9,29.84,West,262,3.0,4.0,85,0.00,,CLR,0.02,VWS V14.01,2013-02-13 00:30:00,
2013-02-12 18:35:00,25.8,22.2,29.84,West,273,3.0,6.0,86,0.00,,CLR,0.02,VWS V14.01,2013-02-13 00:35:00,
2013-02-12 18:40:00,25.8,21.9,29.84,West,276,6.0,6.0,85,0.00,,CLR,0.02,VWS V14.01,2013-02-13 00:40:00,
2013-02-12 18:45:00,25.7,21.8,29.84,West,271,5.0,6.0,85,0.00,,CLR,0.02,VWS V14.01,2013-02-13 00:45:00,
2013-02-12 18:50:00,25.6,21.7,29.84,West,267,3.0,5.0,85,0.00,,CLR,0.02,VWS V14.01,2013-02-13 00:50:00,
2013-02-12 18:55:00,25.3,21.4,29.84,WNW,294,3.0,4.0,85,0.00,,CLR,0.02,VWS V14.01,2013-02-13 00:55:00,
2013-02-12 19:00:00,25.1,21.2,29.84,West,274,3.0,4.0,85,0.00,,CLR,0.02,VWS V14.01,2013-02-13 01:00:00,
2013-02-12 19:05:00,24.9,21.0,29.84,West,271,4.0,4.0,85,0.00,,CLR,0.02,VWS V14.01,2013-02-13 01:05:00,
2013-02-12 19:10:00,24.8,20.9,29.84,West,281,4.0,4.0,85,0.00,,CLR,0.02,VWS V14.01,2013-02-13 01:10:00,
2013-02-12 19:15:00,24.6,20.7,29.84,West,273,2.0,5.0,85,0.00,,CLR,0.02,VWS V14.01,2013-02-13 01:15:00,
2013-02-12 19:20:00,24.2,20.4,29.84,West,260,3.0,3.0,85,0.00,,CLR,0.02,VWS V14.01,2013-02-13 01:20:00,
2013-02-12 19:25:00,24.2,20.6,29.84,West,270,4.0,4.0,86,0.00,,CLR,0.02,VWS V14.01,2013-02-13 01:25:00,
2013-02-12 19:30:00,24.5,20.9,29.84,West,273,3.0,5.0,86,0.00,,CLR,0.02,VWS V14.01,2013-02-13 01:30:00,
2013-02-12 19:35:00,24.1,20.2,29.83,West,264,3.0,4.0,85,0.00,,CLR,0.02,VWS V14.01,2013-02-13 01:35:00,
2013-02-12 19:40:00,23.7,19.9,29.83,West,259,3.0,3.0,85,0.00,,CLR,0.02,VWS V14.01,2013-02-13 01:40:00,
2013-02-12 19:45:00,23.5,20.2,29.83,West,277,3.0,4.0,87,0.00,,CLR,0.02,VWS V14.01,2013-02-13 01:45:00,
2013-02-12 19:50:00,23.4,19.8,29.83,West,269,3.0,3.0,86,0.00,,CLR,0.02,VWS V14.01,2013-02-13 01:50:00,
2013-02-12 19:55:00,23.3,20.0,29.83,West,277,2.0,3.0,87,0.00,,CLR,0.02,VWS V14.01,2013-02-13 01:55:00,
2013-02-12 20:00:00,23.3,20.0,29.83,West,274,2.0,3.0,87,0.00,,CLR,0.02,VWS V14.01,2013-02-13 02:00:00,
2013-02-12 20:05:00,23.1,19.5,29.83,West,273,2.0,3.0,86,0.00,,CLR,0.02,VWS V14.01,2013-02-13 02:05:00,
2013-02-12 20:10:00,22.9,19.6,29.83,West,267,3.0,3.0,87,0.00,,CLR,0.02,VWS V14.01,2013-02-13 02:10:00,
2013-02-12 20:15:00,22.8,19.5,29.83,WSW,255,2.0,3.0,87,0.00,,CLR,0.02,VWS V14.01,2013-02-13 02:15:00,
2013-02-12 20:20:00,22.4,18.9,29.83,West,264,4.0,4.0,86,0.00,,CLR,0.02,VWS V14.01,2013-02-13 02:20:00,
2013-02-12 20:25:00,22.6,19.6,29.82,West,274,5.0,5.0,88,0.00,,CLR,0.02,VWS V14.01,2013-02-13 02:25:00,
2013-02-12 20:30:00,22.9,19.9,29.82,West,276,3.0,5.0,88,0.00,,CLR,0.02,VWS V14.01,2013-02-13 02:30:00,
2013-02-12 20:35:00,23.0,20.0,29.82,West,269,5.0,5.0,88,0.00,,CLR,0.02,VWS V14.01,2013-02-13 02:35:00,
2013-02-12 20:40:00,23.2,20.2,29.82,WNW,283,5.0,5.0,88,0.00,,CLR,0.02,VWS V14.01,2013-02-13 02:40:00,
2013-02-12 20:45:00,23.4,20.4,29.82,West,269,4.0,6.0,88,0.00,,CLR,0.02,VWS V14.01,2013-02-13 02:45:00,
2013-02-12 20:50:00,23.5,20.2,29.81,West,263,6.0,6.0,87,0.00,,CLR,0.02,VWS V14.01,2013-02-13 02:50:00,
2013-02-12 20:55:00,23.6,20.6,29.81,West,278,3.0,6.0,88,0.00,,CLR,0.02,VWS V14.01,2013-02-13 02:55:00,
2013-02-12 21:00:00,23.7,20.7,29.82,WSW,248,5.0,5.0,88,0.00,,CLR,0.02,VWS V14.01,2013-02-13 03:00:00,
2013-02-12 21:05:00,23.7,20.4,29.82,West,273,5.0,5.0,87,0.00,,CLR,0.02,VWS V14.01,2013-02-13 03:05:00,
2013-02-12 21:10:00,23.5,20.2,29.82,West,269,6.0,6.0,87,0.00,,CLR,0.02,VWS V14.01,2013-02-13 03:10:00,
2013-02-12 21:15:00,23.4,20.1,29.82,WNW,284,3.0,6.0,87,0.00,,CLR,0.02,VWS V14.01,2013-02-13 03:15:00,
2013-02-12 21:20:00,23.3,20.3,29.82,West,273,5.0,6.0,88,0.00,,CLR,0.02,VWS V14.01,2013-02-13 03:20:00,
2013-02-12 21:25:00,23.3,20.3,29.82,West,269,5.0,5.0,88,0.00,,CLR,0.02,VWS V14.01,2013-02-13 03:25:00,
2013-02-12 21:30:00,23.2,20.2,29.82,West,277,3.0,6.0,88,0.00,,CLR,0.02,VWS V14.01,2013-02-13 03:30:00,
2013-02-12 21:35:00,23.1,20.1,29.82,West,274,3.0,4.0,88,0.00,,CLR,0.02,VWS V14.01,2013-02-13 03:35:00,
2013-02-12 21:40:00,23.1,20.1,29.82,WSW,256,3.0,4.0,88,0.00,,CLR,0.02,VWS V14.01,2013-02-13 03:40:00,
2013-02-12 21:46:00,23.1,20.1,29.82,West,261,3.0,3.0,88,0.00,,CLR,0.02,VWS V14.01,2013-02-13 03:46:00,
2013-02-12 21:52:00,23.2,20.2,29.82,West,271,2.0,2.0,88,0.00,,CLR,0.02,VWS V14.01,2013-02-13 03:52:00,
2013-02-12 21:58:00,23.2,20.2,29.82,WNW,290,2.0,2.0,88,0.00,,CLR,0.02,VWS V14.01,2013-02-13 03:58:00,
2013-02-12 22:04:00,23.2,20.5,29.82,West,274,2.0,3.0,89,0.00,,CLR,0.02,VWS V14.01,2013-02-13 04:04:00,
2013-02-12 22:10:00,23.1,20.1,29.82,WNW,288,3.0,3.0,88,0.00,,CLR,0.02,VWS V14.01,2013-02-13 04:10:00,
2013-02-12 22:15:00,22.8,19.8,29.82,West,278,2.0,3.0,88,0.00,,CLR,0.02,VWS V14.01,2013-02-13 04:15:00,
2013-02-12 22:20:00,22.5,19.5,29.82,West,271,2.0,3.0,88,0.00,,CLR,0.02,VWS V14.01,2013-02-13 04:20:00,
2013-02-12 22:25:00,22.0,18.7,29.82,West,281,2.0,2.0,87,0.00,,CLR,0.02,VWS V14.01,2013-02-13 04:25:00,
2013-02-12 22:30:00,21.5,18.2,29.82,West,281,2.0,2.0,87,0.00,,CLR,0.02,VWS V14.01,2013-02-13 04:30:00,
2013-02-12 22:35:00,21.1,18.1,29.82,West,269,0.0,2.0,88,0.00,,CLR,0.02,VWS V14.01,2013-02-13 04:35:00,
2013-02-12 22:40:00,20.5,17.2,29.82,West,269,0.0,1.0,87,0.00,,CLR,0.02,VWS V14.01,2013-02-13 04:40:00,
2013-02-12 22:45:00,20.2,17.2,29.82,West,270,2.0,2.0,88,0.00,,CLR,0.02,VWS V14.01,2013-02-13 04:45:00,
2013-02-12 22:50:00,20.0,17.3,29.81,West,269,2.0,2.0,89,0.00,,CLR,0.02,VWS V14.01,2013-02-13 04:50:00,
2013-02-12 22:55:00,19.8,17.1,29.81,West,269,1.0,2.0,89,0.00,,CLR,0.02,VWS V14.01,2013-02-13 04:55:00,
2013-02-12 23:00:00,19.7,17.2,29.81,West,271,2.0,2.0,90,0.00,,CLR,0.02,VWS V14.01,2013-02-13 05:00:00,
2013-02-12 23:04:00,19.7,17.2,29.81,West,266,1.0,2.0,90,0.00,,CLR,0.02,VWS V14.01,2013-02-13 05:04:00,
2013-02-12 23:10:00,19.4,17.0,29.81,West,268,1.0,1.0,90,0.00,,CLR,0.02,VWS V14.01,2013-02-13 05:10:00,
2013-02-12 23:15:00,19.1,16.7,29.81,West,276,1.0,2.0,90,0.00,,CLR,0.02,VWS V14.01,2013-02-13 05:15:00,
2013-02-12 23:20:00,19.3,17.1,29.81,West,274,2.0,2.0,91,0.00,,CLR,0.02,VWS V14.01,2013-02-13 05:20:00,
2013-02-12 23:25:00,19.3,16.9,29.80,West,274,0.0,2.0,90,0.00,,CLR,0.02,VWS V14.01,2013-02-13 05:25:00,
2013-02-12 23:30:00,18.9,16.5,29.80,West,266,1.0,3.0,90,0.00,,CLR,0.02,VWS V14.01,2013-02-13 05:30:00,
2013-02-12 23:35:00,18.5,15.8,29.80,West,269,0.0,2.0,89,0.00,,CLR,0.02,VWS V14.01,2013-02-13 05:35:00,
2013-02-12 23:40:00,17.9,15.2,29.80,West,268,0.0,0.0,89,0.00,,CLR,0.02,VWS V14.01,2013-02-13 05:40:00,
2013-02-12 23:45:00,17.3,14.6,29.80,West,268,0.0,0.0,89,0.00,,CLR,0.02,VWS V14.01,2013-02-13 05:45:00,
2013-02-12 23:50:00,16.6,13.9,29.80,West,269,0.0,0.0,89,0.00,,CLR,0.02,VWS V14.01,2013-02-13 05:50:00,
2013-02-12 23:55:00,16.4,14.0,29.80,West,273,1.0,1.0,90,0.00,,CLR,0.02,VWS V14.01,2013-02-13 05:55:00,